• Join FlightAware (Why Join?)
  • Login
  • US Flag 
03:39PM EST


 

Airport Tracker/Info


-or-


 

Live Flight TrackerFlight Track Log ✈ N682RW ✈ 11-Mar-2014 ✈ KCMH - KDTW

Flight Track Log - Related Links

Times and Time Zones

All times are in EDT time to prevent confusion due to time zone crossing. See the N682RW flight status page for this flight to view local times or setup timezone preferences in your user account.

Time Position Orientation Groundspeed Altitude Reporting Facility
EDT Latitude Longitude Course Direction KTS MPH feet Rate Location/Type
10:58PM 39.9942 -82.9058 275° West 161 185 1,500  Level Indianapolis Center
10:59PM 40.0006 -82.9933 275° West 220 253 4,300 3,000 Climbing Indianapolis Center
11:00PM 40.0703 -83.0558 326° Northwest 284 327 8,700 3,240 Climbing Indianapolis Center
11:01PM 40.1542 -83.0650 355° North 296 341 10,900 2,340 Climbing Indianapolis Center
11:02PM 40.2567 -83.0803 354° North 357 411 13,500 2,760 Climbing Indianapolis Center
11:03PM 40.3617 -83.0942 354° North 374 430 16,600 2,700 Climbing Indianapolis Center
11:04PM 40.4689 -83.1083 354° North 382 440 19,000 1,140 Climbing Indianapolis Center
11:05PM 40.5839 -83.1239 354° North 396 456 19,000  Level Indianapolis Center
11:06PM 40.6964 -83.1397 354° North 398 458 19,000  Level Indianapolis Center
11:07PM 40.8097 -83.1558 354° North 399 459 19,000  Level Indianapolis Center
11:08PM 40.9542 -83.1756 354° North 398 458 19,000  Level Cleveland Center
11:09PM 41.0647 -83.1914 354° North 398 458 19,000 -60 Level Cleveland Center
11:10PM 41.1778 -83.2069 354° North 395 455 18,900 -1,320 Descending Cleveland Center
11:11PM 41.2844 -83.2219 354° North 391 450 16,400 -2,160 Descending Cleveland Center
11:12PM 41.3856 -83.2369 354° North 370 426 14,600 -2,040 Descending Cleveland Center
11:13PM 41.4547 -83.2483 353° North 347 399 13,100 -2,100 Descending Cleveland Center
11:13PM 41.4811 -83.2497 358° North 351 404 12,500 -1,680 Descending Cleveland Center
11:14PM 41.5333 -83.2592 352° North 336 387 11,800 -1,140 Descending Cleveland Center
11:14PM 41.5736 -83.2625 356° North 337 388 11,400 -840 Descending Cleveland Center
11:15PM 41.6206 -83.2711 352° North 298 343 11,000 -420 Descending Cleveland Center
11:15PM 41.6550 -83.2750 355° North 305 351 11,000  Level Cleveland Center
11:16PM 41.7014 -83.2825 353° North 279 321 11,000  Level Cleveland Center
11:16PM 41.7314 -83.2861 355° North 282 325 11,000 -600 Level Cleveland Center
11:17PM 41.7778 -83.2958 351° North 284 327 10,400 -1,140 Descending Cleveland Center
11:18PM 41.8086 -83.3031 350° North 282 325 9,900 -1,620 Descending Cleveland Center
11:18PM 41.8536 -83.3175 347° North 271 312 8,800 -2,280 Descending Cleveland Center
11:19PM 41.8961 -83.3281 350° North 273 314 7,600 -2,340 Descending Cleveland Center
11:19PM 41.9253 -83.3389 345° North 257 296 6,500 -2,220 Descending Cleveland Center
11:20PM 41.9583 -83.3519 344° North 259 298 5,400 -1,980 Descending Cleveland Center
11:20PM 41.9900 -83.3703 337° Northwest 245 282 4,500 -1,740 Descending Cleveland Center
11:21PM 42.0242 -83.3894 337° Northwest 244 281 3,700 -1,200 Descending Cleveland Center
11:21PM 42.0486 -83.3983 345° North 191 220 3,300 -1,140 Descending Cleveland Center
11:22PM 42.0750 -83.4056 349° North 201 231 2,600 -1,200 Descending Cleveland Center
11:22PM 42.0978 -83.4108 350° North 181 208 2,100 -840 Descending Cleveland Center
11:23PM 42.1219 -83.4042 12° North 184 212 1,800 -420 Descending Cleveland Center
11:23PM 42.1392 -83.3914 29° Northeast 144 166 1,700 -300 Descending Cleveland Center
11:24PM 42.1578 -83.3806 23° Northeast 159 183 1,500 -540 Descending Cleveland Center
11:24PM 42.1703 -83.3706 31° Northeast 122 140 1,200 -600 Descending Cleveland Center
11:25PM 42.1856 -83.3586 30° Northeast 135 155 900 -300 Descending Cleveland Center
11:26PM 42.2139 -83.3372 29° Northeast 132 152 800 -120 Descending Cleveland Center
11:28PM 42.2000 -83.3500 270° West  Level FlightAware Approximate